RH
40 42 43 46 49 51 52 53 53 55 55 54 55 57 56 54 52 51 52 52 49 48 48 45 43 42 43 44 44 43 42 42 44 44 40 39 41 44 45 44 46 47
38 39 41 45 47 47 47 49 51 54 55 54 55 55 56 55 53 50 51 51 50 50 49 47 46 44 44 45 43 42 43 41 42 45 41 38 41 44 44 44 45 44
37 38 40 45 48 46 45 46 48 51 53 55 55 54 54 55 55 52 50 49 49 51 51 50 50 47 46 47 43 42 43 41 42 45 41 37 39 43 44 44 45 44
38 39 40 44 47 45 45 45 45 46 50 53 55 53 53 54 56 55 51 47 45 47 48 49 50 50 48 48 48 46 46 42 41 42 40 37 38 39 42 44 44 45
37 38 39 43 45 46 45 43 43 43 45 48 51 53 53 52 53 56 55 50 45 45 47 46 46 47 47 47 48 49 50 50 46 42 38 39 40 39 42 43 41 41
37 36 36 39 42 45 45 45 44 43 43 44 47 51 52 51 52 55 57 54 51 50 50 48 46 47 47 46 44 45 49 53 52 46 40 40 41 41 44 43 39 38
36 37 36 37 40 42 43 46 47 45 44 43 45 47 50 51 52 53 55 55 55 54 53 51 48 45 45 45 42 40 41 45 48 47 44 43 41 40 43 44 41 39
32 36 36 35 39 41 42 45 47 47 46 44 45 45 46 48 50 52 53 53 55 55 54 53 48 43 44 45 44 41 40 43 47 47 46 45 42 39 41 43 42 40
31 34 33 33 37 39 40 42 43 45 46 44 44 45 45 46 47 50 51 51 52 52 50 50 50 47 47 46 42 39 38 41 46 47 49 50 49 46 44 44 44 42
34 35 35 33 35 37 39 40 41 43 44 43 42 43 44 45 45 48 49 47 48 48 46 46 50 51 52 49 44 40 38 39 41 43 46 50 53 52 51 50 47 43
40 38 37 36 34 33 34 37 40 41 42 44 43 41 42 45 46 46 45 44 45 49 48 46 48 51 53 52 50 46 41 40 40 39 40 44 47 49 50 49 47 46
51 47 44 41 38 36 33 33 36 37 39 42 42 41 42 44 46 46 44 43 43 46 49 48 48 50 51 51 51 49 45 43 41 39 38 39 41 44 48 49 49 48
68 64 59 52 47 44 41 38 36 37 38 39 39 41 41 42 43 44 45 44 41 42 45 47 48 49 49 48 49 51 49 46 44 42 40 38 38 41 45 47 49 49
80 80 77 70 62 56 53 50 46 43 42 41 39 40 41 41 41 42 43 42 41 41 42 44 45 48 49 48 49 51 51 48 45 43 42 41 40 41 41 43 45 46
83 84 84 82 76 70 64 61 57 53 49 46 41 39 41 42 41 42 42 42 42 42 42 42 44 46 49 50 51 52 52 51 48 45 44 42 42 41 41 41 41 41
84 83 82 83 82 79 75 71 68 65 60 54 48 43 41 40 40 42 43 43 43 43 42 41 41 44 47 48 49 51 52 52 50 48 46 44 43 42 41 41 40 40
85 84 83 82 82 81 81 80 78 76 73 67 59 50 44 39 36 38 41 43 43 42 42 41 41 43 45 44 44 45 47 48 49 50 49 47 46 44 43 42 41 40
88 87 86 85 84 84 84 84 83 81 80 79 73 63 54 46 40 39 40 43 45 44 43 43 42 42 43 42 41 42 43 45 46 49 50 50 49 48 47 45 43 43
89 88 89 89 88 87 86 86 85 83 84 84 81 74 67 59 52 48 45 45 46 47 46 45 42 41 42 41 41 41 42 42 43 45 48 49 49 50 50 48 47 45
87 87 88 87 87 86 86 87 86 85 86 88 85 81 77 71 64 59 52 48 49 50 49 46 42 39 41 42 41 41 41 41 41 41 42 45 47 47 47 47 47 45
84 85 86 86 85 86 86 86 86 87 88 89 88 86 83 79 75 71 62 56 54 53 51 50 45 41 41 42 41 40 40 39 38 37 38 41 43 43 42 42 42 40
82 83 84 84 84 85 86 86 87 88 89 89 88 88 87 83 81 79 72 65 62 60 59 58 55 48 45 45 44 43 43 42 41 41 43 45 45 43 40 39 39 38
81 81 82 81 83 84 85 85 86 87 89 91 91 90 89 86 84 82 78 75 73 71 70 69 66 59 55 54 53 52 52 51 52 55 58 59 57 54 50 47 44 41
77 79 78 78 82 86 85 86 88 90 91 93 92 91 90 88 86 84 83 82 81 80 78 78 77 74 70 68 67 65 65 65 65 68 71 72 71 70 67 64 59 53
74 77 78 77 80 84 84 85 88 92 94 93 91 92 93 91 90 88 87 87 85 84 83 84 83 82 79 78 76 75 74 75 75 76 77 78 79 80 79 78 76 70
76 76 76 75 75 77 80 80 80 81 87 89 89 90 91 90 90 92 90 89 87 87 87 86 85 84 81 80 79 78 78 78 78 78 78 79 80 80 79 80 80 79